WD6AWP Weather Reports


Display with metric or nautical units.
time (UTC)temp
F
wind
direction
speed
MPH
gust
MPH
rain 1hr
in
rain 24hr
in
rain mn
in
humidity
%
barometer
mb
20260503203022 70 245 1.0 9.0 0.00 0.00 0.00 57 1014.0
20260503201520 70 251 1.0 10.0 0.00 0.00 0.00 60 1014.0
20260503200020 70 284 2.0 10.0 0.00 0.00 0.00 61 1014.1
20260503194519 70 263 3.0 11.0 0.00 0.00 0.00 62 1014.2
20260503193015 69 227 2.0 8.0 0.00 0.00 0.00 63 1014.3
20260503191510 68 220 3.0 9.0 0.00 0.00 0.00 66 1014.4
20260503190017 66 300 2.0 8.0 0.00 0.00 0.00 70 1014.5
20260503184507 65 244 2.0 11.0 0.00 0.00 0.00 71 1014.7
20260503183003 65 262 6.0 10.0 0.00 0.00 0.00 71 1014.8
20260503181501 65 244 2.0 8.0 0.00 0.00 0.00 74 1014.8
20260503174559 65 293 4.0 9.0 0.00 0.00 0.00 74 1014.8
20260503173114 65 273 4.0 9.0 0.00 0.00 0.00 74 1014.7
20260503171556 65 225 3.0 9.0 0.00 0.00 0.00 75 1014.5
20260503110112 61 302 2.0 8.0 0.00 0.00 0.00 83 1012.6
20260503100106 61 284 2.0 5.0 0.00 0.00 0.00 83 1012.8
20260503081545 61 268 1.0 7.0 0.00 0.00 0.00 86 1013.3
20260503071533 60 261 1.0 7.0 0.00 0.00 0.00 89 1013.0
20260503054530 60 280 3.0 8.0 0.00 0.00 0.00 90 1012.8
20260503053024 60 281 3.0 11.0 0.00 0.00 0.00 89 1012.7
20260503051521 60 290 5.0 10.0 0.00 0.00 0.00 89 1012.8
20260503050021 60 276 4.0 11.0 0.00 0.00 0.00 89 1012.8
20260503044519 60 280 4.0 10.0 0.00 0.00 0.00 89 1012.7
20260503043018 60 247 7.0 11.0 0.00 0.00 0.00 89 1012.5
20260503041518 61 280 3.0 10.0 0.00 0.00 0.00 89 1012.4
20260503040019 61 231 5.0 13.0 0.00 0.00 0.00 88 1012.0
20260503034517 61 259 4.0 8.0 0.00 0.00 0.00 88 1011.9
20260503033024 61 248 3.0 9.0 0.00 0.00 0.00 88 1011.5
20260503031513 61 237 1.0 6.0 0.00 0.00 0.00 87 1011.5
20260503030012 61 268 4.0 10.0 0.00 0.00 0.00 87 1011.2
20260503024513 62 269 3.0 11.0 0.00 0.00 0.00 86 1010.9
20260503023011 62 239 5.0 13.0 0.00 0.00 0.00 86 1010.7
20260503021506 63 269 7.0 12.0 0.00 0.00 0.00 85 1010.7
20260503020006 63 279 8.0 15.0 0.00 0.00 0.00 84 1010.5
20260503014505 63 252 7.0 16.0 0.00 0.00 0.00 84 1010.5
20260503013004 64 279 11.0 17.0 0.00 0.00 0.00 82 1010.5
20260503011503 65 260 8.0 17.0 0.00 0.00 0.00 81 1010.5
20260503010002 65 266 9.0 17.0 0.00 0.00 0.00 80 1010.5
20260503004508 66 260 9.0 17.0 0.00 0.00 0.00 79 1010.5
20260503003100 66 285 8.0 18.0 0.00 0.00 0.00 79 1010.5
20260503001559 66 250 9.0 19.0 0.00 0.00 0.00 79 1010.7
20260503000059 66 277 8.0 18.0 0.00 0.00 0.00 78 1010.7
20260502234556 67 235 9.0 19.0 0.00 0.00 0.00 76 1010.7
20260502233153 67 259 11.0 18.0 0.00 0.00 0.00 77 1010.8
20260502231553 67 252 13.0 18.0 0.00 0.00 0.00 76 1010.8
20260502230050 67 271 12.0 18.0 0.00 0.00 0.00 75 1010.9
20260502224602 68 257 10.0 16.0 0.00 0.00 0.00 75 1011.3
20260502223046 68 267 7.0 16.0 0.00 0.00 0.00 75 1011.7
20260502221543 68 221 7.0 15.0 0.00 0.00 0.00 75 1012.1
20260502220042 68 259 8.0 17.0 0.00 0.00 0.00 75 1012.3
20260502214541 69 263 6.0 15.0 0.00 0.00 0.00 76 1012.5
20260502213037 69 266 5.0 15.0 0.00 0.00 0.00 77 1012.7
20260502211541 68 273 5.0 16.0 0.00 0.00 0.00 77 1012.9
20260502210038 69 243 5.0 12.0 0.00 0.00 0.00 76 1013.0
20260502204530 69 283 6.0 12.0 0.00 0.00 0.00 76 1013.1